Other Surface Observations
Issued by NWS

Current Version | Previous Version | Text Only | Print | Product List | Glossary On
Versions: 1 2 3 4 5 6 7 8 9 10 11 12 13 14 15 16 17 18 19 20 21 22 23 24 25 26 27 28 29 30 31 32 33 34 35 36 37 38 39 40 41 42 43 44 45 46 47 48 49 50
905
SXUS52 KTAE 030519
OSOTAE
OSOTAE
North Florida/South Alabama/Southwest Georgia Weather Roundup
National Weather Service Tallahassee Florida
100 AM EDT TUE MAY 03 2016

Note: "fair" indicates few or no clouds below 12,000 feet with no
significant weather and/or obstructions to visibility.

!FLZ017-115-028-034-025-030600
...North Florida...

CITY           SKY/WX    TMP DP  RH WIND       PRES   REMARKS
TALLAHASSEE    CLOUDY    75  69  81 SW3       29.95F
APALACHICOLA   MOCLDY    76  74  93 S7        29.94F
PERRY          CLOUDY    70  69  96 CALM      29.96F FOG
CROSS CITY       N/A     69  66  90 CALM      29.96F
JACKSONVILLE   MOCLDY    74  70  87 SE3       29.96F
$$

!FLZ112-006-005-002-011-030600
...Florida Panhandle...

CITY           SKY/WX    TMP DP  RH WIND       PRES   REMARKS
MARIANNA       CLOUDY    73  72  96 S5        29.93S
BONIFAY        NOT AVBL
PANAMA CITY NW FAIR      72  71  97 CALM      29.92F
TYNDALL AFB    NOT AVBL
TYND DRONE APT NOT AVBL
DE FUNIAK SPR  CLOUDY    72  72 100 CALM      29.94F FOG
EGLIN AFB      NOT AVBL
DESTIN         CLEAR     77  75  93 VRB3      29.93F
HURLBURT       NOT AVBL
CRESTVIEW      CLOUDY    69  67  93 CALM      29.95F
PENSACOLA      CLEAR     71  67  87 SW5       29.93F
$$

!ALZ063-066-030600
...South Alabama...

CITY           SKY/WX    TMP DP  RH WIND       PRES   REMARKS
DOTHAN         CLOUDY    73  70  90 SW8       29.97S
OZARK CAIRNS   NOT AVBL
FT RUCKER HELI CLOUDY    73  67  81 NW6       29.94R
RUCKER HELI 3  NOT AVBL
RUCKER HELI 2  NOT AVBL
FLORALA APT    CLOUDY    70  66  88 CALM      29.95F
ANDALUSIA      CLOUDY    73  68  84 CALM      29.94F
TROY           CLOUDY    68  66  93 CALM      29.94F
EUFALA         MOCLDY    70  67  90 CALM      29.92F
MOBILE         PTCLDY    66  66 100 NW3       29.95F
$$

!GAZ120>161-030600
...Southwest and South Central Georgia...

CITY           SKY/WX    TMP DP  RH WIND       PRES   REMARKS
THOMASVILLE    FAIR      70  70 100 S3        29.95F
BAINBRIDGE     CLOUDY    72  70  94 SW5       29.95S
MOODY AFB      NOT AVBL
VALDOSTA       CLOUDY    69  68  96 CALM      29.95F
MOULTRIE       CLOUDY    72  68  88 CALM      29.95F
BLAKELY        CLOUDY    73  70  88 CALM      29.94F
ALBANY         CLOUDY    71  68  90 S3        29.94F
TIFTON         LGT RAIN  70  70  98 SW6       29.94F
FITZGERALD     CLOUDY    70  69  96 CALM      29.97S
CORDELE        FAIR      74  67  80 S5        29.94F
AMERICUS       MOCLDY    70  70 100 CALM      29.95S
HOMERVILLE     FAIR      70  68  94 CALM      29.96S
$$

!GMZ750-755-770-775-030600
...Coastal and Buoy Obs...

STATION/POSITION TIME  TEMP    WIND        PRES    VSBY  WAVE
                       AIR SEA DIR/SP/G                  HT/PER
                 (UTC) (F)     (DEG/KT/KT) (MB)    (MI)  (FT/S)
KEATON BEACH     0500   77     250/  9/ 10 1014.1F
CEDAR KEY        0500   77     220/  3/  5 1014.9F
C TOWER          0500   75     190/  6/  6 1014.4F
APALACHICOLA BUO 0450   76 76  160/  4/  6 1014.0F         2/ 6
PANAMA CITY BUOY 0450   78 78  200/  8/ 10 1014.3S         3/ 7
MOBILE BUOY      0500   76 77  200/  4/  4 1014.1F
ORANGE BCH AL BU 0450   75 76  170/  2/  4 1013.1F         3/ 8
$$




USA.gov is the U.S. government's official web portal to all federal, state and local government web resources and services.